Time,HR,BR,SkinTemp,Posture,Activity,PeakAccel,BatteryVolts,BatteryLevel,BRAmplitude,BRNoise,BRConfidence,ECGAmplitude,ECGNoise,HRConfidence,HRV,SystemConfidence,GSR,ROGState,ROGTime,VerticalMin,VerticalPeak,LateralMin,LateralPeak,SagittalMin,SagittalPeak,DeviceTemp,StatusInfo,LinkQuality,RSSI,TxPower,CoreTemp,AuxADC1,AuxADC2,AuxADC3
27/06/2015 08:42:52.427,65,8.1,-3276.8,-8,0.12,0.16,4.157,92,5523.000,65535.000,255,0.000000,0.000400,0,65535,0,65535,1,2,-0.96,-0.91,-0.01,0.08,0.03,0.19,23.6,528,255,-128,-128,6553.5,419,476,499
27/06/2015 08:42:53.427,65,8.1,-3276.8,-7,0.07,0.10,4.157,92,4954.000,65535.000,255,0.000000,0.000820,0,65535,0,65535,1,3,-0.95,-0.90,0.00,0.03,0.09,0.19,23.6,528,255,-128,-128,6553.5,418,476,501
27/06/2015 08:42:54.427,65,7.3,-3276.8,-8,0.04,0.07,4.157,92,4364.000,65535.000,255,0.005840,0.000680,0,65535,0,65535,1,4,-0.95,-0.90,-0.03,0.04,0.12,0.19,23.6,528,255,-128,-128,6553.5,416,473,498
27/06/2015 08:42:55.427,57,7.3,-3276.8,-9,0.02,0.04,4.157,92,3769.000,65535.000,255,0.005840,0.000460,0,65535,0,65535,1,5,-0.93,-0.90,-0.01,0.04,0.13,0.19,23.6,528,255,-128,-128,6553.5,418,474,500
27/06/2015 08:42:56.427,66,6.6,-3276.8,-8,0.03,0.13,4.157,92,3279.000,65535.000,255,0.005800,0.000280,0,65535,0,65535,1,6,-0.96,-0.91,0.00,0.04,0.01,0.19,23.6,528,255,-128,-128,6553.5,418,473,500
27/06/2015 08:42:57.427,76,6.6,-3276.8,-7,0.05,0.10,4.157,92,2821.000,65535.000,255,0.005800,0.000200,0,65535,0,65535,1,7,-0.96,-0.90,0.00,0.04,0.01,0.15,23.6,528,255,-128,-128,6553.5,418,473,500
27/06/2015 08:42:58.427,80,6.9,-3276.8,-7,0.03,0.06,4.157,92,2454.000,65535.000,255,0.005680,0.000140,13,65535,0,65535,1,8,-0.96,-0.90,-0.01,0.03,0.08,0.18,23.6,528,255,-128,-128,6553.5,418,472,499
27/06/2015 08:42:59.427,81,6.9,-3276.8,-8,0.02,0.04,4.157,92,2117.000,65535.000,255,0.005680,0.000100,23,65535,100,65535,1,9,-0.93,-0.90,-0.01,0.03,0.09,0.18,23.6,512,255,-128,-128,6553.5,417,472,499
27/06/2015 08:43:00.427,81,7.2,-3276.8,-8,0.02,0.10,4.157,92,1841.000,65535.000,255,0.005640,0.000080,33,65535,100,65535,1,10,-0.95,-0.90,-0.01,0.04,0.00,0.37,23.6,512,255,-128,-128,6553.5,416,456,473
27/06/2015 08:43:01.427,80,7.2,-3276.8,-9,0.01,0.04,4.157,92,1581.000,65535.000,255,0.005640,0.000060,41,65535,100,65535,1,11,-0.95,-0.89,-0.01,0.06,0.13,0.19,23.6,512,255,-128,-128,6553.5,418,472,500
27/06/2015 08:43:02.427,80,7.6,-3276.8,-10,0.01,0.03,4.157,92,1377.000,65535.000,255,0.005240,0.000060,49,65535,100,65535,1,12,-0.93,-0.91,-0.01,0.03,0.12,0.19,23.6,512,255,-128,-128,6553.5,418,470,499
27/06/2015 08:43:03.427,80,7.6,-3276.8,-9,0.02,0.08,4.155,92,1185.000,65535.000,255,0.005240,0.000060,55,65535,100,65535,1,13,-0.97,-0.90,-0.01,0.04,0.06,0.19,23.6,512,255,-128,-128,6553.5,418,469,499
27/06/2015 08:43:04.427,80,7.1,-3276.8,-9,0.01,0.06,4.154,92,1031.000,65535.000,255,0.005620,0.000060,61,65535,100,65535,1,14,-0.96,-0.90,0.00,0.06,0.09,0.19,23.6,512,255,-128,-128,6553.5,417,469,499
27/06/2015 08:43:05.427,80,7.1,-3276.8,-8,0.01,0.06,4.154,92,887.000,65535.000,255,0.005620,0.000060,66,65535,100,65535,1,15,-0.95,-0.91,0.00,0.08,0.07,0.19,23.6,512,255,-128,-128,6553.5,417,468,499
27/06/2015 08:43:06.427,79,6.7,-3276.8,-8,0.01,0.04,4.154,92,779.000,65535.000,255,0.005580,0.000060,70,65535,100,65535,1,16,-0.93,-0.91,0.01,0.07,0.09,0.19,23.6,512,255,-128,-128,6553.5,420,465,504
27/06/2015 08:43:07.427,78,6.7,-3276.8,-8,0.02,0.04,4.154,92,672.000,65535.000,255,0.005580,0.000060,74,65535,100,65535,1,17,-0.95,-0.91,0.02,0.08,0.09,0.18,23.6,512,255,-128,-128,6553.5,417,467,511
27/06/2015 08:43:08.427,77,6.4,-3276.8,-8,0.01,0.03,4.154,92,586.000,65535.000,255,0.005480,0.000040,77,65535,100,65535,1,18,-0.96,-0.91,0.01,0.07,0.09,0.18,23.6,512,255,-128,-128,6553.5,419,468,499
27/06/2015 08:43:09.427,76,6.4,-3276.8,-8,0.01,0.03,4.154,92,507.000,65535.000,255,0.005480,0.000040,80,65535,100,65535,1,19,-0.95,-0.91,0.02,0.08,0.09,0.16,23.6,512,255,-128,-128,6553.5,418,468,499
27/06/2015 08:43:10.427,78,6.0,-3276.8,-7,0.01,0.04,4.154,92,442.000,65535.000,255,0.005400,0.000060,82,65535,100,65535,1,20,-0.96,-0.92,0.02,0.08,0.08,0.18,23.6,512,255,-128,-128,6553.5,418,467,499
27/06/2015 08:43:11.427,79,6.0,-3276.8,-7,0.01,0.04,4.154,92,380.000,65535.000,255,0.005400,0.000060,85,65535,100,65535,1,21,-0.95,-0.91,0.02,0.07,0.08,0.18,23.6,512,255,-128,-128,6553.5,419,466,499
27/06/2015 08:43:12.427,79,6.0,-3276.8,-8,0.01,0.04,4.154,92,332.000,65535.000,255,0.005300,0.000060,87,65535,100,65535,1,22,-0.96,-0.90,0.01,0.08,0.10,0.18,23.6,512,255,-128,-128,6553.5,418,465,499
27/06/2015 08:43:13.427,79,6.0,-3276.8,-8,0.02,0.04,4.154,92,287.000,65535.000,255,0.005300,0.000060,88,65535,100,65535,1,23,-0.93,-0.91,0.02,0.09,0.09,0.18,23.6,512,255,-128,-128,6553.5,417,466,513
27/06/2015 08:43:14.427,79,6.3,-3276.8,-8,0.01,0.03,4.154,92,250.000,65535.000,255,0.005340,0.000060,90,65535,100,65535,1,24,-0.96,-0.91,0.02,0.08,0.09,0.18,23.6,512,255,-128,-128,6553.5,418,466,499
27/06/2015 08:43:15.427,78,6.3,-3276.8,-8,0.01,0.03,4.154,92,217.000,65535.000,255,0.005340,0.000040,91,65535,100,65535,1,25,-0.96,-0.91,0.02,0.08,0.09,0.16,23.6,512,255,-128,-128,6553.5,418,465,499
27/06/2015 08:43:16.427,78,6.6,-3276.8,-7,0.01,0.03,4.152,92,190.000,65535.000,255,0.005440,0.000060,92,65535,100,65535,1,26,-0.96,-0.92,0.02,0.08,0.08,0.15,23.6,512,255,-128,-128,6553.5,418,465,499
27/06/2015 08:43:17.427,77,6.6,-3276.8,-7,0.01,0.04,4.151,91,165.000,65535.000,255,0.005440,0.000060,93,65535,100,65535,1,27,-0.96,-0.92,0.00,0.07,0.06,0.16,23.6,512,255,-128,-128,6553.5,418,464,499
27/06/2015 08:43:18.427,76,7.1,-3276.8,-7,0.01,0.03,4.151,91,144.000,65535.000,255,0.005320,0.000060,94,65535,100,65535,1,28,-0.95,-0.91,0.02,0.08,0.08,0.15,23.6,512,255,-128,-128,6553.5,418,464,499
27/06/2015 08:43:19.427,76,7.1,-3276.8,-6,0.01,0.07,4.151,91,126.000,65535.000,255,0.005320,0.000040,95,65535,100,65535,1,29,-0.95,-0.91,0.01,0.12,0.06,0.15,23.6,512,255,-128,-128,6553.5,410,452,475
27/06/2015 08:43:20.427,77,7.9,-3276.8,-7,0.01,0.04,4.151,91,111.000,65535.000,255,0.005420,0.000060,96,65535,100,65535,1,30,-0.96,-0.91,0.02,0.07,0.08,0.15,23.6,512,255,-128,-128,6553.5,418,464,499
27/06/2015 08:43:21.427,77,7.9,-3276.8,-7,0.01,0.06,4.151,91,98.000,65535.000,255,0.005420,0.000060,96,65535,100,65535,1,31,-0.95,-0.91,0.02,0.08,0.06,0.16,23.6,512,255,-128,-128,6553.5,419,464,499
27/06/2015 08:43:22.427,77,8.6,-3276.8,-7,0.01,0.06,4.151,91,88.000,65535.000,255,0.005340,0.000040,97,65535,100,65535,1,32,-0.95,-0.91,0.02,0.08,0.06,0.16,23.7,512,255,-128,-128,6553.5,418,463,499
27/06/2015 08:43:23.427,76,8.6,-3276.8,-8,0.03,0.06,4.151,91,76.000,65535.000,255,0.005340,0.000060,97,65535,100,65535,1,33,-0.96,-0.91,0.02,0.10,0.08,0.16,23.7,512,255,-128,-128,6553.5,418,463,499
27/06/2015 08:43:24.427,76,9.2,-3276.8,-7,0.11,0.08,4.151,91,69.000,65535.000,255,0.005300,0.000060,97,65535,100,65535,1,34,-1.02,-0.90,-0.01,0.06,0.04,0.19,23.7,512,255,-128,-128,6553.5,417,463,499
27/06/2015 08:43:25.427,78,9.2,-3276.8,-7,0.10,0.19,4.151,91,65.000,65535.000,255,0.005300,0.000060,98,65535,100,65535,1,35,-0.97,-0.90,0.02,0.24,-0.01,0.18,23.7,512,255,-128,-128,6553.5,417,462,499
27/06/2015 08:43:26.427,79,10.1,-3276.8,-7,0.09,0.14,4.151,91,57.000,65535.000,255,0.005380,0.000040,98,65535,100,65535,1,36,-1.03,-0.90,0.00,0.19,-0.01,0.19,23.7,512,255,-128,-128,6553.5,416,456,479
27/06/2015 08:43:27.427,80,10.1,-3276.8,-9,0.10,0.16,4.151,91,55.000,65535.000,255,0.005380,0.000060,98,65535,100,65535,1,37,-0.98,-0.91,0.01,0.24,-0.01,0.19,23.7,512,255,-128,-128,6553.5,418,462,499
27/06/2015 08:43:28.427,82,11.5,-3276.8,-7,0.09,0.13,4.151,91,51.000,65535.000,255,0.005400,0.000060,99,65535,100,65535,1,38,-1.00,-0.90,0.02,0.24,0.01,0.14,23.8,512,255,-128,-128,6553.5,419,461,499
27/06/2015 08:43:29.427,82,11.5,-3276.8,-7,0.10,0.12,4.151,91,45.000,65535.000,255,0.005400,0.000060,99,65535,100,65535,1,39,-1.01,-0.90,0.00,0.13,0.01,0.19,23.9,512,255,-128,-128,6553.5,417,461,499
27/06/2015 08:43:30.427,82,12.7,-3276.8,-8,0.08,0.14,4.151,91,44.000,65535.000,255,0.005340,0.000060,99,65535,100,65535,1,40,-0.98,-0.90,0.13,0.25,-0.01,0.15,23.9,512,255,-128,-128,6553.5,418,461,499
27/06/2015 08:43:31.427,82,12.7,-3276.8,-8,0.08,0.13,4.151,91,42.000,65535.000,255,0.005340,0.000040,99,65535,100,65535,1,41,-1.00,-0.90,-0.02,0.18,0.01,0.18,23.9,512,255,-128,-128,6553.5,418,462,499
27/06/2015 08:43:32.427,81,13.9,-3276.8,-8,0.05,0.13,4.151,91,38.000,65535.000,255,0.005380,0.000060,99,65535,100,65535,1,42,-0.98,-0.90,0.02,0.22,0.02,0.18,23.9,512,255,-128,-128,6553.5,408,453,500
27/06/2015 08:43:33.427,80,13.9,-3276.8,-9,0.03,0.07,4.151,91,35.000,65535.000,255,0.005380,0.000060,99,65535,100,65535,1,43,-0.96,-0.91,0.09,0.20,0.02,0.13,23.9,512,255,-128,-128,6553.5,418,461,500
27/06/2015 08:43:34.427,80,14.6,-3276.8,-10,0.03,0.09,4.151,91,31.000,65535.000,255,0.005380,0.000060,99,65535,100,65535,1,44,-0.96,-0.91,0.10,0.20,0.08,0.18,23.9,512,255,-128,-128,6553.5,417,459,499
27/06/2015 08:43:35.427,80,14.6,-3276.8,-11,0.02,0.06,4.151,91,28.000,65535.000,255,0.005380,0.000060,99,65535,100,65535,1,45,-0.95,-0.91,0.12,0.20,0.06,0.14,23.9,512,255,-128,-128,6553.5,417,460,499
27/06/2015 08:43:36.427,80,15.5,-3276.8,-11,0.02,0.04,4.151,91,29.000,65535.000,255,0.005280,0.000040,100,65535,100,65535,1,46,-0.95,-0.91,0.12,0.20,0.06,0.14,23.9,512,255,-128,-128,6553.5,418,460,499
27/06/2015 08:43:37.427,79,15.5,-3276.8,-11,0.02,0.06,4.151,91,25.000,65535.000,255,0.005280,0.000040,100,65535,100,65535,1,47,-0.96,-0.91,0.14,0.20,0.06,0.16,23.9,512,255,-128,-128,6553.5,418,459,499
27/06/2015 08:43:38.427,78,16.1,-3276.8,-11,0.02,0.06,4.151,91,24.000,65535.000,255,0.005160,0.000060,100,65535,100,65535,1,48,-0.96,-0.91,0.12,0.20,0.03,0.16,23.9,512,255,-128,-128,6553.5,412,454,481
27/06/2015 08:43:39.427,78,16.1,-3276.8,-11,0.01,0.04,4.151,91,23.000,65535.000,255,0.005160,0.000060,100,65535,100,65535,1,49,-0.96,-0.91,0.14,0.21,0.06,0.15,24.0,512,255,-128,-128,6553.5,418,460,500
27/06/2015 08:43:40.427,77,16.5,-3276.8,-11,0.02,0.04,4.151,91,21.000,65535.000,255,0.005500,0.000060,100,65535,100,65535,1,50,-0.96,-0.91,0.12,0.21,0.03,0.13,24.1,512,255,-128,-128,6553.5,418,458,499
27/06/2015 08:43:41.427,77,16.5,-3276.8,-11,0.02,0.04,4.151,91,20.000,65535.000,255,0.005500,0.000060,100,65535,100,65535,1,51,-0.95,-0.91,0.13,0.20,0.03,0.13,24.1,512,255,-128,-128,6553.5,417,458,498
27/06/2015 08:43:42.427,77,17.0,-3276.8,-11,0.01,0.04,4.151,91,19.000,65535.000,255,0.005420,0.000060,100,65535,100,65535,1,52,-0.98,-0.92,0.13,0.21,0.03,0.12,24.1,512,255,-128,-128,6553.5,418,458,499
27/06/2015 08:43:43.427,77,17.0,-3276.8,-11,0.01,0.03,4.151,91,18.000,65535.000,255,0.005420,0.000060,100,65535,100,65535,1,53,-0.96,-0.91,0.14,0.21,0.03,0.13,24.1,512,255,-128,-128,6553.5,417,458,500
27/06/2015 08:43:44.427,76,17.4,-3276.8,-11,0.02,0.04,4.151,91,18.000,65535.000,255,0.005500,0.000060,100,65535,100,65535,1,54,-0.96,-0.91,0.14,0.20,0.04,0.14,24.1,512,255,-128,-128,6553.5,418,457,512
27/06/2015 08:43:45.427,77,17.4,-3276.8,-11,0.02,0.04,4.151,91,16.000,65535.000,255,0.005500,0.000060,100,65535,100,65535,1,55,-0.96,-0.90,0.14,0.20,0.03,0.14,24.1,512,255,-128,-128,6553.5,417,457,499
27/06/2015 08:43:46.427,77,17.7,-3276.8,-11,0.01,0.04,4.151,91,17.000,65535.000,255,0.005460,0.000060,100,65535,100,65535,1,56,-0.96,-0.91,0.13,0.21,0.03,0.13,24.1,512,255,-128,-128,6553.5,417,456,499
27/06/2015 08:43:47.427,76,17.7,-3276.8,-11,0.02,0.04,4.151,91,17.000,65535.000,255,0.005460,0.000060,100,65535,100,65535,1,57,-0.96,-0.92,0.13,0.21,0.03,0.13,24.1,512,255,-128,-128,6553.5,419,457,499
27/06/2015 08:43:48.427,77,17.8,-3276.8,-11,0.02,0.06,4.151,91,16.000,65535.000,255,0.005540,0.000060,100,65535,100,65535,1,58,-0.96,-0.91,0.14,0.21,0.06,0.15,24.1,512,255,-128,-128,37.1,417,456,499
27/06/2015 08:43:49.427,77,17.8,-3276.8,-11,0.01,0.04,4.151,91,16.000,65535.000,255,0.005540,0.000060,100,65535,100,65535,1,59,-0.96,-0.91,0.14,0.21,0.04,0.13,24.1,512,255,-128,-128,37.1,418,456,499
27/06/2015 08:43:50.427,77,17.8,-3276.8,-11,0.01,0.03,4.151,91,19.000,65535.000,255,0.005660,0.000060,100,65535,100,65535,1,60,-0.96,-0.91,0.15,0.22,0.04,0.13,24.1,512,255,-128,-128,37.1,406,443,498
27/06/2015 08:43:51.427,78,17.8,-3276.8,-11,0.01,0.06,4.151,91,18.000,65535.000,255,0.005660,0.000060,100,65535,100,65535,1,61,-0.96,-0.92,0.13,0.25,0.03,0.12,24.2,512,255,-128,-128,37.1,418,456,500
27/06/2015 08:43:52.427,78,17.8,-3276.8,-11,0.02,0.04,4.151,91,18.000,65535.000,255,0.005560,0.000040,100,65535,100,65535,1,62,-0.97,-0.91,0.14,0.22,0.01,0.12,24.2,512,255,-128,-128,37.1,418,457,498
27/06/2015 08:43:53.427,78,17.8,-3276.8,-11,0.01,0.04,4.151,91,18.000,65535.000,255,0.005560,0.000060,100,65535,100,65535,1,63,-0.97,-0.91,0.15,0.21,0.02,0.12,24.2,512,255,-128,-128,37.1,419,455,499
27/06/2015 08:43:54.427,78,18.1,-3276.8,-11,0.01,0.04,4.151,91,18.000,65535.000,255,0.005520,0.000060,100,65535,100,65535,1,64,-0.96,-0.92,0.14,0.21,0.01,0.10,24.3,512,255,-128,-128,37.1,417,455,499
27/06/2015 08:43:55.427,78,18.1,-3276.8,-11,0.01,0.04,4.151,91,18.000,65535.000,255,0.005520,0.000060,100,65535,100,65535,1,65,-0.96,-0.92,0.13,0.21,0.02,0.09,24.3,512,255,-128,-128,37.1,419,455,499
27/06/2015 08:43:56.427,78,18.1,-3276.8,-11,0.01,0.10,4.151,91,17.000,65535.000,255,0.005500,0.000060,100,65535,100,65535,1,66,-0.97,-0.91,0.01,0.22,0.00,0.08,24.3,512,255,-128,-128,37.1,417,456,498
27/06/2015 08:43:57.427,77,18.1,-3276.8,-11,0.01,0.03,4.151,91,17.000,65535.000,255,0.005500,0.000060,100,65535,100,65535,1,67,-0.96,-0.91,0.14,0.21,0.02,0.08,24.3,512,255,-128,-128,37.1,418,455,499
27/06/2015 08:43:58.427,76,18.4,-3276.8,-11,0.01,0.03,4.151,91,17.000,65535.000,255,0.005420,0.000060,100,65535,100,65535,1,68,-0.96,-0.91,0.15,0.21,0.01,0.08,24.3,512,255,-128,-128,37.1,418,455,498
27/06/2015 08:43:59.427,77,18.4,-3276.8,-11,0.05,0.12,4.151,91,16.000,65535.000,255,0.005420,0.000060,100,65535,100,65535,1,69,-0.96,-0.91,0.13,0.22,0.03,0.19,24.3,512,255,-128,-128,37.1,418,455,499
27/06/2015 08:44:00.427,77,18.7,-3276.8,-9,0.16,0.25,4.151,91,21.000,65535.000,255,0.005400,0.000060,100,65535,100,65535,1,70,-1.18,-0.75,-0.02,0.24,-0.01,0.22,24.3,512,255,-128,-128,37.1,419,455,499
27/06/2015 08:44:01.427,80,18.7,-3276.8,-9,0.13,0.34,4.151,91,22.000,65535.000,255,0.005400,0.000060,100,65535,100,65535,1,71,-1.30,-0.79,-0.02,0.25,-0.10,0.21,24.3,512,255,-128,-128,37.1,418,456,499
27/06/2015 08:44:02.427,81,19.2,-3276.8,-10,0.13,0.28,4.151,91,21.000,65535.000,255,0.005460,0.000060,100,65535,100,65535,1,72,-1.24,-0.78,-0.02,0.24,-0.01,0.24,24.3,512,255,-128,-128,37.1,419,456,498
27/06/2015 08:44:03.427,82,19.2,-3276.8,-10,0.15,0.37,4.151,91,23.000,65535.000,255,0.005460,0.000080,100,65535,100,65535,1,73,-1.33,-0.74,-0.02,0.22,-0.02,0.28,24.3,512,255,-128,-128,37.1,419,454,499
27/06/2015 08:44:04.427,82,20.0,-3276.8,-9,0.16,0.33,4.151,91,24.000,65535.000,255,0.005460,0.000080,100,65535,100,65535,1,74,-1.28,-0.72,-0.01,0.24,0.02,0.31,24.4,512,255,-128,-128,37.1,418,453,499
27/06/2015 08:44:05.427,82,20.0,-3276.8,-9,0.17,0.37,4.151,91,28.000,65535.000,255,0.005460,0.000080,100,65535,100,65535,1,75,-1.31,-0.68,-0.03,0.22,-0.08,0.28,24.4,512,255,-128,-128,37.1,412,448,498
27/06/2015 08:44:06.427,81,20.7,-3276.8,-9,0.22,0.38,4.151,91,33.000,65535.000,255,0.005600,0.000080,100,65535,100,65535,1,76,-1.32,-0.72,-0.09,0.27,-0.18,0.39,24.5,512,255,-128,-128,37.1,416,452,499
27/06/2015 08:44:07.427,81,20.7,-3276.8,-9,0.20,0.45,4.151,91,37.000,65535.000,255,0.005600,0.000100,100,65535,100,65535,1,77,-1.42,-0.59,-0.04,0.25,-0.16,0.33,24.5,512,255,-128,-128,37.1,421,456,499
27/06/2015 08:44:08.427,81,21.6,-3276.8,-9,0.23,0.46,4.150,91,45.000,65535.000,255,0.005700,0.000100,100,65535,100,65535,1,78,-1.36,-0.54,-0.09,0.30,-0.18,0.38,24.5,512,255,-128,-128,37.1,417,455,498
27/06/2015 08:44:09.427,82,21.6,-3276.8,-9,0.26,0.49,4.150,91,42.000,65535.000,255,0.005700,0.000120,100,65535,100,65535,1,79,-1.34,-0.54,-0.12,0.28,-0.24,0.36,24.5,512,255,-128,-128,37.1,419,454,498
27/06/2015 08:44:10.427,82,22.7,-3276.8,-9,0.27,0.49,4.150,91,42.000,65535.000,255,0.005800,0.000140,100,65535,100,65535,1,80,-1.43,-0.53,-0.08,0.30,-0.21,0.40,24.5,512,255,-128,-128,37.1,420,454,497
27/06/2015 08:44:11.427,83,22.7,-3276.8,-9,0.25,0.44,4.150,91,44.000,65535.000,255,0.005800,0.000160,100,65535,100,65535,1,81,-1.33,-0.54,-0.04,0.28,-0.21,0.46,24.5,512,255,-128,-128,37.1,419,452,499
27/06/2015 08:44:12.427,85,24.4,-3276.8,-11,0.27,0.48,4.150,91,43.000,65535.000,255,0.006160,0.000180,100,65535,100,65535,1,82,-1.43,-0.54,-0.06,0.31,-0.16,0.46,24.5,512,255,-128,-128,37.1,418,452,498
27/06/2015 08:44:13.427,82,24.4,-3276.8,-9,0.26,0.57,4.150,91,42.000,65535.000,255,0.006160,0.000160,100,65535,100,65535,1,83,-1.45,-0.54,-0.03,0.25,-0.30,0.37,24.5,512,255,-128,-128,37.1,418,453,497
27/06/2015 08:44:14.427,79,26.1,-3276.8,-9,0.26,0.50,4.150,91,42.000,65535.000,255,0.006320,0.000160,100,65535,100,65535,1,84,-1.32,-0.53,-0.07,0.25,-0.30,0.37,24.5,512,255,-128,-128,37.1,417,453,498
27/06/2015 08:44:15.427,77,26.1,-3276.8,-8,0.28,0.63,4.150,91,43.000,65535.000,255,0.006320,0.000140,100,65535,100,65535,1,85,-1.56,-0.54,-0.16,0.22,-0.25,0.48,24.5,512,255,-128,-128,37.1,418,452,499
27/06/2015 08:44:16.427,77,28.3,-3276.8,-7,0.32,0.63,4.150,91,45.000,65535.000,255,0.006100,0.000120,100,65535,100,65535,1,86,-1.42,-0.37,-0.22,0.27,-0.40,0.38,24.6,512,255,-128,-128,37.1,417,452,497
27/06/2015 08:44:17.427,79,28.3,-3276.8,-7,0.30,0.51,4.150,91,53.000,65535.000,255,0.006100,0.000120,100,65535,100,65535,1,87,-1.44,-0.42,-0.10,0.27,-0.33,0.34,24.6,512,255,-128,-128,37.1,417,453,498
27/06/2015 08:44:18.427,80,30.3,-3276.8,-8,0.27,0.53,4.150,91,111.000,65535.000,255,0.006140,0.000140,100,65535,100,65535,1,88,-1.37,-0.40,-0.13,0.22,-0.24,0.37,24.7,512,255,-128,-128,37.1,419,453,498
27/06/2015 08:44:19.427,80,30.3,-3276.8,-8,0.28,0.55,4.150,91,113.000,65535.000,255,0.006140,0.000120,100,65535,100,65535,1,89,-1.30,-0.37,-0.10,0.24,-0.32,0.40,24.7,512,255,-128,-128,37.1,418,452,499
27/06/2015 08:44:20.427,80,32.0,-3276.8,-6,0.27,0.44,4.150,91,101.000,65535.000,255,0.006000,0.000120,100,65535,100,65535,1,90,-1.40,-0.53,-0.14,0.22,-0.30,0.28,24.7,512,255,-128,-128,37.1,417,451,498
27/06/2015 08:44:21.427,80,32.0,-3276.8,-6,0.26,0.48,4.150,91,90.000,65535.000,255,0.006000,0.000100,100,65535,100,65535,1,91,-1.30,-0.44,-0.20,0.21,-0.26,0.38,24.7,512,255,-128,-128,37.1,408,444,494
27/06/2015 08:44:22.427,81,33.5,-3276.8,-5,0.27,0.48,4.150,91,80.000,65535.000,255,0.005600,0.000100,100,65535,100,65535,1,92,-1.32,-0.44,-0.16,0.20,-0.34,0.34,24.7,512,255,-128,-128,37.1,418,452,498
27/06/2015 08:44:23.427,81,33.5,-3276.8,-4,0.27,0.46,4.150,91,71.000,65535.000,255,0.005600,0.000100,100,65535,100,65535,1,93,-1.37,-0.46,-0.16,0.21,-0.36,0.28,24.7,512,255,-128,-128,37.1,417,451,499
27/06/2015 08:44:24.427,82,34.9,-3276.8,-3,0.28,0.46,4.150,91,64.000,65535.000,255,0.005640,0.000100,100,65535,100,65535,1,94,-1.30,-0.46,-0.12,0.25,-0.36,0.30,24.7,512,255,-128,-128,37.1,417,451,498
27/06/2015 08:44:25.427,83,34.9,-3276.8,-3,0.28,0.53,4.150,91,56.000,65535.000,255,0.005640,0.000100,100,65535,100,65535,1,95,-1.37,-0.40,-0.16,0.24,-0.31,0.32,24.7,512,255,-128,-128,37.1,417,451,497
27/06/2015 08:44:26.427,84,36.4,-3276.8,-3,0.29,0.49,4.150,91,51.000,65535.000,255,0.005680,0.000100,100,65535,100,65535,1,96,-1.39,-0.44,-0.10,0.24,-0.42,0.24,24.8,512,255,-128,-128,37.1,417,446,480
27/06/2015 08:44:27.427,85,36.4,-3276.8,-3,0.27,0.46,4.150,91,47.000,65535.000,255,0.005680,0.000100,100,65535,100,65535,3,0,-1.30,-0.48,-0.18,0.22,-0.34,0.26,24.8,512,255,-128,-128,37.1,417,449,496
27/06/2015 08:44:28.427,85,37.7,-3276.8,-3,0.26,0.42,4.150,91,43.000,65535.000,255,0.005640,0.000120,100,65535,100,65535,3,1,-1.33,-0.53,-0.07,0.24,-0.32,0.31,24.8,512,255,-128,-128,37.1,416,450,498
27/06/2015 08:44:29.427,86,37.7,-3276.8,-3,0.27,0.40,4.150,91,43.000,65535.000,255,0.005640,0.000120,100,65535,100,65535,3,2,-1.33,-0.54,-0.09,0.26,-0.32,0.31,24.8,512,255,-128,-128,37.1,419,451,497
27/06/2015 08:44:30.427,85,38.9,-3276.8,-3,0.27,0.43,4.150,91,38.000,65535.000,255,0.005840,0.000120,100,65535,100,65535,3,3,-1.30,-0.50,-0.13,0.24,-0.36,0.27,24.8,512,255,-128,-128,37.1,418,450,497
27/06/2015 08:44:31.427,86,38.9,-3276.8,-3,0.28,0.43,4.150,91,36.000,65535.000,255,0.005840,0.000140,100,65535,100,65535,3,4,-1.36,-0.51,-0.18,0.27,-0.32,0.25,24.8,512,255,-128,-128,37.1,417,453,489
27/06/2015 08:44:32.427,86,39.9,-3276.8,-4,0.28,0.45,4.150,91,34.000,65535.000,255,0.006100,0.000140,100,65535,100,65535,3,5,-1.30,-0.49,-0.07,0.25,-0.32,0.33,24.8,512,255,-128,-128,37.1,417,449,499
27/06/2015 08:44:33.427,85,39.9,-3276.8,-3,0.28,0.46,4.149,91,32.000,65535.000,255,0.006100,0.000120,100,65535,100,65535,3,6,-1.33,-0.46,-0.12,0.24,-0.30,0.30,24.8,512,255,-128,-128,37.1,415,446,497
27/06/2015 08:44:34.427,85,40.7,-3276.8,-3,0.27,0.40,4.149,91,31.000,65535.000,255,0.006020,0.000120,100,65535,100,65535,3,7,-1.34,-0.54,-0.07,0.24,-0.31,0.30,24.8,512,255,-128,-128,37.1,417,449,497
27/06/2015 08:44:35.427,85,40.7,-3276.8,-4,0.29,0.49,4.149,91,29.000,65535.000,255,0.006020,0.000120,100,65535,100,65535,3,8,-1.45,-0.49,-0.07,0.25,-0.32,0.39,24.8,512,255,-128,-128,37.1,416,448,497
27/06/2015 08:44:36.427,84,41.2,-3276.8,-4,0.27,0.43,4.149,91,26.000,65535.000,255,0.006220,0.000120,100,65535,100,65535,3,9,-1.33,-0.54,-0.14,0.21,-0.31,0.31,24.8,512,255,-128,-128,37.1,417,448,497
27/06/2015 08:44:37.427,83,41.2,-3276.8,-5,0.24,0.40,4.149,91,26.000,65535.000,255,0.006220,0.000120,100,65535,100,65535,3,10,-1.30,-0.53,-0.09,0.22,-0.21,0.32,24.8,512,255,-128,-128,37.1,412,446,496
27/06/2015 08:44:38.427,83,41.6,-3276.8,-6,0.23,0.40,4.149,91,26.000,65535.000,255,0.006180,0.000120,100,65535,100,65535,3,11,-1.32,-0.51,-0.06,0.26,-0.21,0.32,24.8,512,255,-128,-128,37.1,414,447,496
27/06/2015 08:44:39.427,83,41.6,-3276.8,-7,0.25,0.42,4.149,91,30.000,65535.000,255,0.006180,0.000120,100,65535,100,65535,3,12,-1.37,-0.51,-0.07,0.22,-0.28,0.34,24.8,512,255,-128,-128,37.1,418,449,497
27/06/2015 08:44:40.427,83,41.9,-3276.8,-6,0.27,0.43,4.149,91,30.000,65535.000,255,0.006120,0.000140,100,65535,100,65535,3,13,-1.32,-0.49,-0.10,0.24,-0.28,0.30,24.8,512,255,-128,-128,37.1,426,454,499
27/06/2015 08:44:41.427,84,41.9,-3276.8,-6,0.29,0.48,4.149,91,32.000,65535.000,255,0.006120,0.000140,100,65535,100,65535,3,14,-1.45,-0.44,-0.15,0.27,-0.32,0.33,24.9,512,255,-128,-128,37.1,425,456,498
27/06/2015 08:44:42.427,84,42.2,-3276.8,-6,0.30,0.49,4.149,91,29.000,65535.000,255,0.006120,0.000120,100,65535,100,65535,3,15,-1.37,-0.44,-0.14,0.36,-0.31,0.28,24.9,512,255,-128,-128,37.1,419,452,512
27/06/2015 08:44:43.427,84,42.2,-3276.8,-6,0.28,0.48,4.149,91,27.000,65535.000,255,0.006120,0.000140,100,65535,100,65535,3,16,-1.32,-0.45,-0.15,0.21,-0.28,0.37,24.9,512,255,-128,-128,37.1,419,452,497
27/06/2015 08:44:44.427,86,42.4,-3276.8,-6,0.28,0.56,4.149,91,25.000,65535.000,255,0.006080,0.000140,100,65535,100,65535,3,17,-1.33,-0.37,-0.16,0.25,-0.24,0.38,25.0,512,255,-128,-128,37.1,414,444,497
27/06/2015 08:44:45.427,87,42.4,-3276.8,-6,0.30,0.55,4.149,91,24.000,65535.000,255,0.006080,0.000140,100,65535,100,65535,3,18,-1.48,-0.38,-0.16,0.22,-0.34,0.36,25.0,512,255,-128,-128,37.1,421,454,496
27/06/2015 08:44:46.427,87,42.6,-3276.8,-6,0.31,0.51,4.149,91,22.000,65535.000,255,0.005960,0.000140,100,65535,100,65535,3,19,-1.44,-0.42,-0.15,0.21,-0.27,0.36,25.0,512,255,-128,-128,37.1,421,452,498
27/06/2015 08:44:47.427,88,42.6,-3276.8,-6,0.31,0.51,4.149,91,21.000,65535.000,255,0.005960,0.000140,100,65535,100,65535,3,20,-1.42,-0.42,-0.13,0.25,-0.33,0.37,25.0,512,255,-128,-128,37.1,414,445,497
27/06/2015 08:44:48.427,88,42.9,-3276.8,-6,0.29,0.49,4.149,91,20.000,65535.000,255,0.005980,0.000160,100,65535,100,65535,3,21,-1.45,-0.43,-0.09,0.24,-0.32,0.37,25.0,512,255,-128,-128,37.2,416,446,497